HAZ9205 ZSHC-ZGGG

Flight info

Callsign HAZ9205
Flight time 1h 44m
Altitude 34100
Route ELNEX A599 PLT W19 OLPAB
Aircraft A320/M-SDE3FGHIRWY/LB1

Departure

Time 2026-05-05 01:43
Airport Hangzhou Xiaoshan International Airport (ZSHC)

Arrival

Time 2026-05-05 03:27
Airport Guangzhou Baiyun International Airport (ZGGG)
Time Latitude Longitude Altitude Speed Heading
2026-05-05 01:11 30.24110 120.42645 32 ft 0 kts 144°
2026-05-05 01:22 30.24116 120.42641 32 ft 2 kts 141°
2026-05-05 01:22 30.24129 120.42630 31 ft 2 kts 142°
2026-05-05 01:22 30.24142 120.42618 32 ft 2 kts 144°
2026-05-05 01:23 30.24156 120.42607 31 ft 2 kts 144°
2026-05-05 01:23 30.24169 120.42596 31 ft 2 kts 140°
2026-05-05 01:23 30.24180 120.42582 31 ft 2 kts 121°
2026-05-05 01:23 30.24188 120.42565 32 ft 2 kts 109°
2026-05-05 01:24 30.24189 120.42546 32 ft 2 kts 77°
2026-05-05 01:24 30.24185 120.42529 32 ft 1 kts 64°
2026-05-05 01:24 30.24183 120.42526 29 ft 0 kts 63°
2026-05-05 01:25 30.24184 120.42527 32 ft 1 kts 63°
2026-05-05 01:26 30.24189 120.42539 32 ft 3 kts 63°
2026-05-05 01:26 30.24202 120.42568 29 ft 5 kts 63°
2026-05-05 01:26 30.24221 120.42612 32 ft 7 kts 63°
2026-05-05 01:26 30.24248 120.42672 32 ft 9 kts 62°
2026-05-05 01:27 30.24282 120.42747 32 ft 12 kts 62°
2026-05-05 01:27 30.24340 120.42804 32 ft 12 kts 355°
2026-05-05 01:27 30.24417 120.42763 32 ft 9 kts 334°
2026-05-05 01:27 30.24480 120.42759 31 ft 10 kts 40°
2026-05-05 01:28 30.24517 120.42838 32 ft 12 kts 63°
2026-05-05 01:28 30.24559 120.42933 32 ft 14 kts 63°
2026-05-05 01:28 30.24606 120.43040 32 ft 13 kts 63°
2026-05-05 01:28 30.24652 120.43143 32 ft 15 kts 63°
2026-05-05 01:29 30.24698 120.43247 32 ft 10 kts 63°
2026-05-05 01:29 30.24734 120.43328 32 ft 12 kts 63°
2026-05-05 01:29 30.24776 120.43423 32 ft 14 kts 63°
2026-05-05 01:29 30.24820 120.43522 32 ft 13 kts 63°
2026-05-05 01:30 30.24863 120.43622 32 ft 15 kts 63°
2026-05-05 01:30 30.24914 120.43736 32 ft 17 kts 63°
2026-05-05 01:30 30.24972 120.43867 32 ft 19 kts 63°
2026-05-05 01:30 30.25021 120.43978 32 ft 12 kts 63°
2026-05-05 01:31 30.25059 120.44036 32 ft 10 kts 27°
2026-05-05 01:31 30.25108 120.44025 33 ft 0 kts 334°
2026-05-05 01:41 30.25111 120.44023 31 ft 1 kts 333°
2026-05-05 01:41 30.25123 120.44016 31 ft 3 kts 334°
2026-05-05 01:41 30.25144 120.44004 33 ft 4 kts 333°
2026-05-05 01:41 30.25174 120.43986 33 ft 6 kts 330°
2026-05-05 01:42 30.25197 120.43939 32 ft 8 kts 261°
2026-05-05 01:42 30.25165 120.43866 32 ft 21 kts 242°
2026-05-05 01:42 30.24986 120.43466 32 ft 88 kts 243°
2026-05-05 01:42 30.24621 120.42639 30 ft 141 kts 243°
2026-05-05 01:43 30.24134 120.41524 282 ft 162 kts 242°
2026-05-05 01:43 30.23613 120.40350 904 ft 164 kts 240°
2026-05-05 01:43 30.23092 120.39181 1602 ft 163 kts 239°
2026-05-05 01:43 30.22575 120.38021 2299 ft 161 kts 239°
2026-05-05 01:44 30.22062 120.36870 2975 ft 161 kts 240°
2026-05-05 01:44 30.21535 120.35691 3503 ft 171 kts 240°
2026-05-05 01:44 30.20960 120.34412 3910 ft 187 kts 240°
2026-05-05 01:44 30.20339 120.33023 4305 ft 203 kts 240°
2026-05-05 01:45 30.19663 120.31505 4671 ft 222 kts 241°
2026-05-05 01:45 30.18927 120.29853 5169 ft 240 kts 241°
2026-05-05 01:45 30.18133 120.28074 5720 ft 258 kts 241°
2026-05-05 01:45 30.17285 120.26173 6317 ft 274 kts 242°
2026-05-05 01:46 30.16400 120.24184 7069 ft 281 kts 242°
2026-05-05 01:46 30.15501 120.22160 7936 ft 285 kts 242°
2026-05-05 01:46 30.14593 120.20115 8788 ft 287 kts 242°
2026-05-05 01:46 30.13557 120.18138 9628 ft 289 kts 234°
2026-05-05 01:47 30.12375 120.16247 10408 ft 292 kts 234°
2026-05-05 01:47 30.11183 120.14340 11174 ft 293 kts 234°
2026-05-05 01:47 30.09987 120.12426 11958 ft 295 kts 234°
2026-05-05 01:47 30.08780 120.10496 12716 ft 298 kts 235°
2026-05-05 01:48 30.07565 120.08552 13479 ft 300 kts 235°
2026-05-05 01:48 30.06342 120.06596 14202 ft 301 kts 235°
2026-05-05 01:48 30.05112 120.04628 14714 ft 303 kts 235°
2026-05-05 01:48 30.04278 120.03296 14841 ft 303 kts 235°
2026-05-05 01:49 30.03062 120.01354 14898 ft 303 kts 235°
2026-05-05 01:49 30.01857 119.99325 14903 ft 306 kts 241°
2026-05-05 01:49 30.00767 119.97102 14904 ft 331 kts 241°
2026-05-05 01:49 29.99608 119.94745 14902 ft 354 kts 241°
2026-05-05 01:50 29.98346 119.92196 14901 ft 376 kts 241°
2026-05-05 01:50 29.97037 119.89565 14897 ft 379 kts 241°
2026-05-05 01:50 29.95721 119.86924 14896 ft 380 kts 241°
2026-05-05 01:50 29.94409 119.84284 14901 ft 380 kts 241°
2026-05-05 01:51 29.93095 119.81643 14897 ft 380 kts 241°
2026-05-05 01:51 29.91778 119.79003 14900 ft 380 kts 240°
2026-05-05 01:51 29.90460 119.76365 14902 ft 380 kts 240°
2026-05-05 01:51 29.89141 119.73726 14905 ft 380 kts 240°
2026-05-05 01:52 29.87820 119.71086 14902 ft 380 kts 240°
2026-05-05 01:52 29.86453 119.68478 14903 ft 381 kts 236°
2026-05-05 01:52 29.84742 119.66153 14917 ft 382 kts 225°
2026-05-05 01:52 29.82660 119.64239 15313 ft 386 kts 215°
2026-05-05 01:53 29.80422 119.62497 15927 ft 389 kts 216°
2026-05-05 01:53 29.78180 119.60740 16563 ft 391 kts 216°
2026-05-05 01:53 29.75927 119.58969 17199 ft 394 kts 216°
2026-05-05 01:53 29.73654 119.57186 17826 ft 396 kts 216°
2026-05-05 01:54 29.71371 119.55399 18445 ft 399 kts 216°
2026-05-05 01:54 29.69066 119.53600 18985 ft 401 kts 216°
2026-05-05 01:54 29.66749 119.51794 19510 ft 404 kts 216°
2026-05-05 01:54 29.64421 119.49970 20067 ft 405 kts 218°
2026-05-05 01:55 29.62287 119.47868 20586 ft 405 kts 227°
2026-05-05 01:55 29.60394 119.45467 21083 ft 406 kts 230°
2026-05-05 01:55 29.58502 119.43045 21552 ft 408 kts 230°
2026-05-05 01:55 29.56599 119.40620 21998 ft 410 kts 230°
2026-05-05 01:56 29.54684 119.38188 22436 ft 411 kts 230°
2026-05-05 01:56 29.52760 119.35747 22880 ft 413 kts 230°
2026-05-05 01:56 29.50831 119.33297 23314 ft 414 kts 230°
2026-05-05 01:56 29.48896 119.30838 23725 ft 416 kts 230°
2026-05-05 01:57 29.46959 119.28374 24072 ft 417 kts 230°
2026-05-05 01:57 29.44992 119.25872 24476 ft 416 kts 230°
2026-05-05 01:57 29.43081 119.23439 24868 ft 416 kts 230°
2026-05-05 01:57 29.41147 119.20980 25247 ft 416 kts 230°
2026-05-05 01:58 29.39209 119.18517 25612 ft 415 kts 230°
2026-05-05 01:58 29.37272 119.16059 25988 ft 415 kts 230°
2026-05-05 01:58 29.35313 119.13575 26374 ft 415 kts 230°
2026-05-05 01:58 29.33397 119.11154 26732 ft 415 kts 231°
2026-05-05 01:59 29.31465 119.08716 27196 ft 412 kts 231°
2026-05-05 01:59 29.29548 119.06301 27746 ft 407 kts 231°
2026-05-05 01:59 29.27651 119.03914 28304 ft 403 kts 231°
2026-05-05 01:59 29.25775 119.01554 28871 ft 398 kts 231°
2026-05-05 02:00 29.23921 118.99219 29434 ft 394 kts 231°
2026-05-05 02:00 29.22087 118.96909 30016 ft 390 kts 231°
2026-05-05 02:00 29.20272 118.94623 30502 ft 387 kts 231°
2026-05-05 02:00 29.18466 118.92351 30875 ft 385 kts 231°
2026-05-05 02:01 29.16666 118.90087 31266 ft 384 kts 232°
2026-05-05 02:01 29.14868 118.87831 31682 ft 383 kts 232°
2026-05-05 02:01 29.13079 118.85587 32076 ft 381 kts 232°
2026-05-05 02:01 29.11292 118.83344 32420 ft 381 kts 232°
2026-05-05 02:02 29.09504 118.81104 32770 ft 381 kts 232°
2026-05-05 02:02 29.07718 118.78868 33161 ft 380 kts 232°
2026-05-05 02:02 29.05935 118.76638 33576 ft 380 kts 232°
2026-05-05 02:02 29.04157 118.74417 33958 ft 378 kts 232°
2026-05-05 02:03 29.02384 118.72202 34156 ft 378 kts 232°
2026-05-05 02:03 29.00601 118.69971 34195 ft 383 kts 232°
2026-05-05 02:03 28.96964 118.65414 34202 ft 390 kts 232°
2026-05-05 02:04 28.93303 118.60847 34194 ft 390 kts 232°
2026-05-05 02:04 28.89628 118.56279 34199 ft 391 kts 232°
2026-05-05 02:05 28.85935 118.51682 34191 ft 398 kts 232°
2026-05-05 02:05 28.82120 118.46941 34193 ft 407 kts 232°
2026-05-05 02:06 28.78283 118.42178 34188 ft 408 kts 232°
2026-05-05 02:06 28.74470 118.37454 34190 ft 407 kts 232°
2026-05-05 02:07 28.70634 118.32707 34189 ft 407 kts 232°
2026-05-05 02:07 28.66796 118.27951 34191 ft 408 kts 232°
2026-05-05 02:08 28.62953 118.23204 34193 ft 408 kts 232°
2026-05-05 02:08 28.59105 118.18455 34187 ft 408 kts 232°
2026-05-05 02:09 28.55234 118.13680 34181 ft 408 kts 232°
2026-05-05 02:09 28.51379 118.08943 34183 ft 408 kts 232°
2026-05-05 02:10 28.47521 118.04208 34180 ft 408 kts 232°
2026-05-05 02:10 28.43672 117.99470 34176 ft 408 kts 232°
2026-05-05 02:11 28.39805 117.94745 34176 ft 409 kts 231°
2026-05-05 02:11 28.35857 117.90083 34179 ft 410 kts 231°
2026-05-05 02:12 28.29912 117.83115 34187 ft 410 kts 231°
2026-05-05 02:13 28.25955 117.78458 34190 ft 410 kts 231°
2026-05-05 02:13 28.21996 117.73801 34191 ft 410 kts 231°
2026-05-05 02:14 28.18039 117.69142 34189 ft 410 kts 231°
2026-05-05 02:14 28.14089 117.64493 34189 ft 409 kts 231°
2026-05-05 02:15 28.10133 117.59856 34186 ft 409 kts 231°
2026-05-05 02:15 28.06164 117.55216 34179 ft 410 kts 231°
2026-05-05 02:16 28.02206 117.50579 34179 ft 409 kts 231°
2026-05-05 02:16 27.98250 117.45940 34170 ft 411 kts 231°
2026-05-05 02:17 27.94274 117.41286 34181 ft 412 kts 231°
2026-05-05 02:17 27.90280 117.36633 34172 ft 412 kts 231°
2026-05-05 02:18 27.86289 117.31983 34177 ft 412 kts 231°
2026-05-05 02:18 27.82291 117.27327 34176 ft 412 kts 231°
2026-05-05 02:19 27.78304 117.22695 34183 ft 411 kts 231°
2026-05-05 02:19 27.74319 117.18061 34178 ft 412 kts 231°
2026-05-05 02:20 27.70321 117.13413 34179 ft 414 kts 231°
2026-05-05 02:20 27.66313 117.08763 34180 ft 414 kts 231°
2026-05-05 02:21 27.62293 117.04101 34187 ft 414 kts 231°
2026-05-05 02:21 27.58270 116.99454 34182 ft 414 kts 231°
2026-05-05 02:22 27.54242 116.94806 34177 ft 414 kts 231°
2026-05-05 02:22 27.50220 116.90153 34184 ft 415 kts 232°
2026-05-05 02:23 27.46221 116.85473 34181 ft 415 kts 232°
2026-05-05 02:23 27.42225 116.80780 34180 ft 415 kts 232°
2026-05-05 02:24 27.38223 116.76094 34178 ft 416 kts 232°
2026-05-05 02:24 27.34211 116.71408 34182 ft 416 kts 232°
2026-05-05 02:25 27.30198 116.66720 34170 ft 417 kts 232°
2026-05-05 02:25 27.26162 116.62028 34171 ft 417 kts 232°
2026-05-05 02:26 27.22124 116.57345 34173 ft 417 kts 232°
2026-05-05 02:26 27.18122 116.52627 34173 ft 417 kts 233°
2026-05-05 02:27 27.14858 116.48650 34172 ft 417 kts 233°
2026-05-05 02:27 27.10939 116.43839 34174 ft 418 kts 233°
2026-05-05 02:28 27.06988 116.39054 34179 ft 418 kts 233°
2026-05-05 02:28 27.03024 116.34279 34176 ft 419 kts 233°
2026-05-05 02:29 26.99057 116.29489 34178 ft 419 kts 233°
2026-05-05 02:29 26.95087 116.24700 34176 ft 420 kts 233°
2026-05-05 02:30 26.91079 116.19873 34179 ft 421 kts 233°
2026-05-05 02:30 26.87133 116.15098 34177 ft 421 kts 234°
2026-05-05 02:31 26.83178 116.10263 34175 ft 421 kts 234°
2026-05-05 02:31 26.79189 116.05395 34178 ft 422 kts 234°
2026-05-05 02:32 26.75236 116.00602 34168 ft 422 kts 233°
2026-05-05 02:32 26.71258 115.95781 34161 ft 422 kts 234°
2026-05-05 02:33 26.67275 115.90948 34161 ft 423 kts 234°
2026-05-05 02:33 26.63278 115.86110 34164 ft 423 kts 234°
2026-05-05 02:34 26.59247 115.81236 34164 ft 424 kts 234°
2026-05-05 02:34 26.55243 115.76403 34162 ft 424 kts 234°
2026-05-05 02:35 26.51235 115.71570 34164 ft 423 kts 234°
2026-05-05 02:35 26.47231 115.66742 34164 ft 424 kts 234°
2026-05-05 02:36 26.43226 115.61918 34167 ft 424 kts 234°
2026-05-05 02:36 26.39214 115.57096 34166 ft 425 kts 234°
2026-05-05 02:37 26.35180 115.52257 34153 ft 426 kts 234°
2026-05-05 02:37 26.31137 115.47413 34147 ft 427 kts 234°
2026-05-05 02:38 26.27091 115.42561 34162 ft 427 kts 234°
2026-05-05 02:38 26.23038 115.37713 34167 ft 427 kts 234°
2026-05-05 02:39 26.18982 115.32869 34169 ft 427 kts 234°
2026-05-05 02:39 26.14932 115.28031 34164 ft 427 kts 234°
2026-05-05 02:40 26.10877 115.23188 34157 ft 428 kts 234°
2026-05-05 02:40 26.06818 115.18350 34154 ft 428 kts 234°
2026-05-05 02:41 26.02749 115.13507 34160 ft 429 kts 234°
2026-05-05 02:41 25.98681 115.08668 34159 ft 429 kts 234°
2026-05-05 02:42 25.94603 115.03819 34151 ft 429 kts 234°
2026-05-05 02:42 25.90525 114.98980 34158 ft 429 kts 234°
2026-05-05 02:43 25.86447 114.94148 34159 ft 429 kts 234°
2026-05-05 02:43 25.82214 114.89461 34158 ft 437 kts 225°
2026-05-05 02:43 25.79600 114.87648 34150 ft 451 kts 214°
2026-05-05 02:44 25.76611 114.86435 34144 ft 466 kts 202°
2026-05-05 02:44 25.70237 114.84878 34150 ft 469 kts 201°
2026-05-05 02:45 25.63862 114.83308 34163 ft 469 kts 202°
2026-05-05 02:45 25.57507 114.81714 34158 ft 468 kts 202°
2026-05-05 02:46 25.51150 114.80130 34166 ft 468 kts 202°
2026-05-05 02:46 25.44782 114.78553 34167 ft 469 kts 202°
2026-05-05 02:47 25.38424 114.76979 34162 ft 468 kts 202°
2026-05-05 02:47 25.32061 114.75411 34167 ft 468 kts 202°
2026-05-05 02:48 25.25702 114.73844 34165 ft 468 kts 202°
2026-05-05 02:48 25.19343 114.72271 34173 ft 468 kts 202°
2026-05-05 02:49 25.13001 114.70705 34173 ft 467 kts 201°
2026-05-05 02:49 25.06657 114.69146 34172 ft 467 kts 201°
2026-05-05 02:50 25.00317 114.67590 34169 ft 467 kts 201°
2026-05-05 02:50 24.94103 114.66079 34022 ft 444 kts 202°
2026-05-05 02:50 24.91106 114.65355 33592 ft 440 kts 202°
2026-05-05 02:51 24.88111 114.64621 33205 ft 441 kts 202°
2026-05-05 02:51 24.85111 114.63880 32828 ft 442 kts 202°
2026-05-05 02:51 24.82104 114.63134 32452 ft 443 kts 202°
2026-05-05 02:51 24.79093 114.62388 32083 ft 444 kts 202°
2026-05-05 02:52 24.76078 114.61642 31723 ft 445 kts 202°
2026-05-05 02:52 24.73056 114.60894 31359 ft 445 kts 202°
2026-05-05 02:52 24.70117 114.59907 31006 ft 437 kts 210°
2026-05-05 02:52 24.67396 114.58503 30665 ft 429 kts 217°
2026-05-05 02:53 24.64812 114.56867 30312 ft 429 kts 218°
2026-05-05 02:53 24.62226 114.55223 29938 ft 430 kts 218°
2026-05-05 02:53 24.59634 114.53577 29532 ft 432 kts 217°
2026-05-05 02:53 24.57028 114.51929 29131 ft 432 kts 217°
2026-05-05 02:54 24.54420 114.50284 28735 ft 433 kts 217°
2026-05-05 02:54 24.51807 114.48638 28338 ft 434 kts 217°
2026-05-05 02:54 24.49185 114.46987 27960 ft 435 kts 217°
2026-05-05 02:54 24.46564 114.45336 27584 ft 435 kts 217°
2026-05-05 02:55 24.43934 114.43677 27205 ft 436 kts 217°
2026-05-05 02:55 24.41299 114.42016 26837 ft 437 kts 216°
2026-05-05 02:55 24.38657 114.40357 26471 ft 438 kts 216°
2026-05-05 02:55 24.36003 114.38692 26109 ft 440 kts 216°
2026-05-05 02:56 24.33344 114.37024 25755 ft 441 kts 216°
2026-05-05 02:56 24.30675 114.35351 25408 ft 443 kts 216°
2026-05-05 02:56 24.28003 114.33681 25056 ft 439 kts 216°
2026-05-05 02:56 24.25373 114.32046 24741 ft 432 kts 216°
2026-05-05 02:57 24.22769 114.30421 24427 ft 430 kts 216°
2026-05-05 02:57 24.20177 114.28802 24119 ft 428 kts 216°
2026-05-05 02:57 24.17595 114.27185 23809 ft 427 kts 215°
2026-05-05 02:57 24.15021 114.25572 23474 ft 425 kts 216°
2026-05-05 02:58 24.12478 114.23945 23106 ft 421 kts 218°
2026-05-05 02:58 24.10164 114.22040 22742 ft 412 kts 226°
2026-05-05 02:58 24.08163 114.19837 22384 ft 406 kts 233°
2026-05-05 02:58 24.06485 114.17380 22033 ft 401 kts 240°
2026-05-05 02:59 24.05123 114.14735 21681 ft 397 kts 244°
2026-05-05 02:59 24.03837 114.12063 21337 ft 395 kts 244°
2026-05-05 02:59 24.02557 114.09416 20993 ft 393 kts 244°
2026-05-05 02:59 24.01277 114.06775 20656 ft 392 kts 244°
2026-05-05 03:00 24.00003 114.04147 20323 ft 390 kts 244°
2026-05-05 03:00 23.98734 114.01535 19992 ft 388 kts 243°
2026-05-05 03:00 23.97470 113.98937 19666 ft 386 kts 243°
2026-05-05 03:00 23.96210 113.96347 19343 ft 385 kts 243°
2026-05-05 03:01 23.94962 113.93779 19025 ft 378 kts 243°
2026-05-05 03:01 23.93750 113.91285 18741 ft 366 kts 243°
2026-05-05 03:01 23.92576 113.88864 18503 ft 355 kts 243°
2026-05-05 03:01 23.91441 113.86517 18271 ft 343 kts 243°
2026-05-05 03:02 23.90333 113.84230 18012 ft 340 kts 243°
2026-05-05 03:02 23.89223 113.81946 17750 ft 340 kts 243°
2026-05-05 03:02 23.88115 113.79673 17493 ft 339 kts 243°
2026-05-05 03:02 23.87009 113.77405 17224 ft 338 kts 243°
2026-05-05 03:03 23.85893 113.75115 16986 ft 337 kts 243°
2026-05-05 03:03 23.84793 113.72859 16734 ft 336 kts 243°
2026-05-05 03:03 23.83696 113.70607 16485 ft 336 kts 243°
2026-05-05 03:03 23.82602 113.68362 16236 ft 334 kts 243°
2026-05-05 03:04 23.81468 113.66148 15999 ft 334 kts 239°
2026-05-05 03:04 23.80602 113.64757 15831 ft 335 kts 235°
2026-05-05 03:04 23.78573 113.62184 15515 ft 336 kts 227°
2026-05-05 03:04 23.76850 113.60503 15282 ft 337 kts 221°
2026-05-05 03:05 23.74926 113.59018 15045 ft 340 kts 216°
2026-05-05 03:05 23.73596 113.58117 14885 ft 339 kts 216°
2026-05-05 03:05 23.71593 113.56760 14653 ft 338 kts 216°
2026-05-05 03:05 23.69597 113.55406 14423 ft 338 kts 216°
2026-05-05 03:06 23.67600 113.54051 14189 ft 338 kts 216°
2026-05-05 03:06 23.65600 113.52695 13960 ft 337 kts 216°
2026-05-05 03:06 23.63612 113.51347 13713 ft 336 kts 216°
2026-05-05 03:06 23.61629 113.50003 13466 ft 335 kts 214°
2026-05-05 03:07 23.59557 113.48828 13200 ft 337 kts 207°
2026-05-05 03:07 23.57357 113.47945 12951 ft 338 kts 200°
2026-05-05 03:07 23.55077 113.47310 12697 ft 338 kts 198°
2026-05-05 03:07 23.52800 113.46698 12447 ft 336 kts 198°
2026-05-05 03:08 23.50535 113.46084 12217 ft 333 kts 198°
2026-05-05 03:08 23.48325 113.45486 12013 ft 321 kts 198°
2026-05-05 03:08 23.46201 113.44912 11822 ft 309 kts 198°
2026-05-05 03:08 23.44148 113.44356 11632 ft 299 kts 198°
2026-05-05 03:09 23.42156 113.43815 11438 ft 290 kts 198°
2026-05-05 03:09 23.40226 113.43291 11248 ft 282 kts 198°
2026-05-05 03:09 23.38328 113.42775 11057 ft 281 kts 198°
2026-05-05 03:09 23.36435 113.42258 10879 ft 280 kts 198°
2026-05-05 03:10 23.34552 113.41746 10681 ft 279 kts 198°
2026-05-05 03:10 23.32674 113.41238 10490 ft 278 kts 198°
2026-05-05 03:10 23.30800 113.40732 10305 ft 277 kts 198°
2026-05-05 03:10 23.28930 113.40227 10120 ft 276 kts 198°
2026-05-05 03:11 23.27068 113.39725 9938 ft 275 kts 198°
2026-05-05 03:11 23.25209 113.39223 9728 ft 275 kts 198°
2026-05-05 03:11 23.23355 113.38720 9522 ft 274 kts 198°
2026-05-05 03:11 23.21505 113.38219 9316 ft 274 kts 197°
2026-05-05 03:12 23.19656 113.37719 9117 ft 274 kts 197°
2026-05-05 03:12 23.17811 113.37220 8906 ft 273 kts 197°
2026-05-05 03:12 23.15966 113.36722 8714 ft 273 kts 197°
2026-05-05 03:12 23.14126 113.36225 8518 ft 271 kts 197°
2026-05-05 03:13 23.12322 113.35740 8338 ft 263 kts 197°
2026-05-05 03:13 23.10575 113.35271 8166 ft 255 kts 197°
2026-05-05 03:13 23.08878 113.34814 8005 ft 247 kts 198°
2026-05-05 03:13 23.07242 113.34372 7907 ft 237 kts 198°
2026-05-05 03:14 23.05693 113.33956 7902 ft 221 kts 198°
2026-05-05 03:14 23.04199 113.33552 7907 ft 222 kts 198°
2026-05-05 03:14 23.02701 113.33145 7907 ft 222 kts 198°
2026-05-05 03:14 23.01206 113.32738 7909 ft 221 kts 198°
2026-05-05 03:15 22.99713 113.32334 7904 ft 222 kts 198°
2026-05-05 03:15 22.98214 113.31928 7905 ft 222 kts 198°
2026-05-05 03:15 22.96716 113.31523 7905 ft 222 kts 198°
2026-05-05 03:15 22.95213 113.31120 7902 ft 222 kts 198°
2026-05-05 03:16 22.93709 113.30716 7901 ft 223 kts 198°
2026-05-05 03:16 22.92280 113.30140 7896 ft 217 kts 218°
2026-05-05 03:16 22.91326 113.28910 7899 ft 215 kts 248°
2026-05-05 03:16 22.91105 113.27325 7900 ft 217 kts 276°
2026-05-05 03:17 22.91457 113.25722 7907 ft 219 kts 282°
2026-05-05 03:17 22.91836 113.24121 7903 ft 219 kts 281°
2026-05-05 03:17 22.92210 113.22518 7906 ft 218 kts 281°
2026-05-05 03:17 22.92595 113.20924 7900 ft 220 kts 286°
2026-05-05 03:18 22.93496 113.19584 7897 ft 229 kts 322°
2026-05-05 03:18 22.95041 113.19099 7899 ft 242 kts
2026-05-05 03:18 22.96714 113.19451 7897 ft 247 kts 10°
2026-05-05 03:18 22.98391 113.19909 7612 ft 249 kts 11°
2026-05-05 03:19 23.01693 113.20847 7091 ft 237 kts 11°
2026-05-05 03:19 23.03250 113.21283 6836 ft 226 kts 10°
2026-05-05 03:19 23.04740 113.21693 6577 ft 216 kts 10°
2026-05-05 03:20 23.06174 113.22083 6303 ft 211 kts 10°
2026-05-05 03:20 23.07598 113.22466 5999 ft 211 kts 10°
2026-05-05 03:20 23.09031 113.22850 5715 ft 213 kts 11°
2026-05-05 03:20 23.10474 113.23236 5419 ft 214 kts 11°
2026-05-05 03:21 23.11903 113.23619 5124 ft 212 kts 12°
2026-05-05 03:21 23.13304 113.23996 4824 ft 204 kts 12°
2026-05-05 03:21 23.14676 113.24365 4532 ft 203 kts 13°
2026-05-05 03:21 23.16041 113.24732 4229 ft 199 kts 13°
2026-05-05 03:22 23.17359 113.25086 3973 ft 191 kts 13°
2026-05-05 03:22 23.18612 113.25423 3780 ft 181 kts 14°
2026-05-05 03:22 23.19819 113.25748 3538 ft 178 kts 14°
2026-05-05 03:22 23.21015 113.26070 3279 ft 177 kts 14°
2026-05-05 03:23 23.22208 113.26391 3069 ft 177 kts 15°
2026-05-05 03:23 23.23404 113.26714 2855 ft 177 kts 15°
2026-05-05 03:23 23.24602 113.27036 2640 ft 178 kts 16°
2026-05-05 03:23 23.25806 113.27361 2401 ft 179 kts 16°
2026-05-05 03:24 23.26995 113.27682 2171 ft 173 kts 16°
2026-05-05 03:24 23.28145 113.27991 1952 ft 167 kts 16°
2026-05-05 03:24 23.29211 113.28278 1748 ft 149 kts 15°
2026-05-05 03:24 23.30179 113.28539 1557 ft 141 kts 15°
2026-05-05 03:25 23.31129 113.28796 1366 ft 140 kts 15°
2026-05-05 03:25 23.32078 113.29052 1182 ft 140 kts 15°
2026-05-05 03:25 23.33022 113.29307 996 ft 140 kts 15°
2026-05-05 03:25 23.33959 113.29559 823 ft 138 kts 15°
2026-05-05 03:26 23.34888 113.29810 644 ft 137 kts 14°
2026-05-05 03:26 23.35806 113.30058 454 ft 135 kts 14°
2026-05-05 03:26 23.36730 113.30309 271 ft 135 kts 14°
2026-05-05 03:26 23.37624 113.30551 99 ft 134 kts 14°
2026-05-05 03:27 23.38441 113.30772 55 ft 85 kts 12°
2026-05-05 03:27 23.38812 113.30870 55 ft 35 kts 13°
2026-05-05 03:27 23.39053 113.30935 58 ft 31 kts 14°
2026-05-05 03:27 23.39236 113.30970 57 ft 27 kts 358°
2026-05-05 03:28 23.39407 113.30934 59 ft 13 kts 346°
2026-05-05 03:28 23.39480 113.30915 55 ft 9 kts 346°
2026-05-05 03:28 23.39551 113.30896 56 ft 12 kts 346°
2026-05-05 03:28 23.39646 113.30894 54 ft 15 kts 12°
2026-05-05 03:29 23.39712 113.30895 52 ft 10 kts 333°
2026-05-05 03:29 23.39734 113.30824 59 ft 11 kts 283°
2026-05-05 03:29 23.39765 113.30740 53 ft 13 kts 324°
2026-05-05 03:29 23.39852 113.30725 57 ft 12 kts 317°
2026-05-05 03:30 23.39880 113.30628 59 ft 13 kts 279°
2026-05-05 03:30 23.39848 113.30575 59 ft 3 kts 213°
2026-05-05 03:30 23.39825 113.30558 51 ft 5 kts 213°
2026-05-05 03:30 23.39788 113.30532 57 ft 5 kts 214°
2026-05-05 03:31 23.39785 113.30529 59 ft 0 kts 214°